Change the Weather History Date:

Thursday, November 1, 2012

  Actual Average Record
Temperature  
Mean Temperature 48 °F -  
Max Temperature 53 °F - - ()
Min Temperature 44 °F - - ()
Degree Days  
Heating Degree Days 16    
Moisture  
Dew Point 46 °F    
Average Humidity 92    
Maximum Humidity 100    
Minimum Humidity 82    
Precipitation  
Precipitation 0.00 in - - ()
Sea Level Pressure  
Sea Level Pressure 29.64 in    
Wind  
Wind Speed 16 mph ()    
Max Wind Speed 26 mph    
Max Gust Speed -    
Visibility 5.9 miles    
Events      
T = Trace of Precipitation, MM = Missing Value Source: Averaged Metar Reports

Daily Weather History Graph

Daily Weather History Graph

Search for Another Location

Airport or City:

Trip Planner

Search our weather history database for the weather conditions in past years. The results will help you decide how hot, cold, wet, or windy it might be!

Date:

Astronomy

Nov. 01, 2012 Rise Set
Actual Time 7:51 AM CET 6:13 PM CET
Civil Twilight 7:22 AM CET 6:42 PM CET
Nautical Twilight 6:50 AM CET 7:15 PM CET
Astronomical Twilight 6:17 AM CET 7:47 PM CET
Moon 7:57 PM CET (11/1) 10:14 AM CET (11/1)
Length of Visible Light 11h 19m
Length of Day
10h 21m
Waning Gibbous, 94% of the Moon is Illuminated
Nov 1
Waning Gibbous
Nov 7
Last Quarter
Nov 13
New
Nov 20
First Quarter
Nov 28
Full

Hourly Weather History & Observations

Time (CET) Temp. Windchill Dew Point Humidity Pressure Visibility Wind Dir Wind Speed Gust Speed Precip Events Conditions
6:00 AM 44.6 °F 39.2 °F 42.8 °F 93% 29.53 in 6.2 mi SW 10.4 mph - N/A   Mostly Cloudy
6:30 AM 44.6 °F 38.8 °F 42.8 °F 93% 29.53 in 6.2 mi SW 11.5 mph - N/A   Mostly Cloudy
7:00 AM 44.6 °F 38.4 °F 42.8 °F 93% 29.53 in 6.2 mi SW 12.7 mph - N/A   Mostly Cloudy
7:30 AM 44.6 °F 37.4 °F 42.8 °F 93% 29.53 in 6.2 mi SW 16.1 mph - N/A   Mostly Cloudy
8:00 AM 44.6 °F 36.9 °F 44.6 °F 100% 29.53 in 6.2 mi SW 18.4 mph - N/A   Mostly Cloudy
8:30 AM 44.6 °F 37.4 °F 44.6 °F 100% 29.56 in 6.2 mi SW 16.1 mph - N/A   Mostly Cloudy
9:00 AM 44.6 °F 36.4 °F 44.6 °F 100% 29.56 in 6.2 mi SW 20.7 mph - N/A   Mostly Cloudy
9:30 AM 46.4 °F 39.0 °F 44.6 °F 93% 29.59 in 6.2 mi SW 19.6 mph - N/A   Mostly Cloudy
10:00 AM 46.4 °F 38.7 °F 44.6 °F 93% 29.59 in 6.2 mi WSW 20.7 mph - N/A   Mostly Cloudy
10:30 AM 46.4 °F 39.2 °F 44.6 °F 93% 29.59 in 6.2 mi WSW 18.4 mph - N/A   Mostly Cloudy
11:00 AM 48.2 °F - 44.6 °F 87% 29.59 in 6.2 mi WSW 17.3 mph - N/A   Mostly Cloudy
11:30 AM 50.0 °F - 46.4 °F 87% 29.59 in 6.2 mi WSW 21.9 mph - N/A   Mostly Cloudy
12:00 PM 51.8 °F - 46.4 °F 82% 29.62 in 6.2 mi WSW 21.9 mph - N/A   Mostly Cloudy
12:30 PM 50.0 °F - 46.4 °F 87% 29.62 in 6.2 mi WSW 24.2 mph - N/A   Mostly Cloudy
1:00 PM 50.0 °F - 46.4 °F 87% 29.62 in 2.5 mi WSW 25.3 mph - N/A   Light Drizzle
1:30 PM 48.2 °F - 48.2 °F 100% 29.62 in 2.5 mi WSW 20.7 mph - N/A   Light Drizzle
2:00 PM 50.0 °F - 48.2 °F 94% 29.62 in 3.7 mi WSW 23.0 mph - N/A   Light Drizzle
2:30 PM 50.0 °F - 50.0 °F 100% 29.62 in 5.6 mi WSW 21.9 mph - N/A   Drizzle
3:00 PM 51.8 °F - 50.0 °F 94% 29.62 in 5.6 mi WSW 25.3 mph - N/A   Drizzle
3:30 PM 51.8 °F - 50.0 °F 94% 29.62 in 6.2 mi WSW 25.3 mph - N/A   Scattered Clouds
4:00 PM 53.6 °F - 48.2 °F 82% 29.62 in 6.2 mi West 23.0 mph - N/A   Scattered Clouds
4:30 PM 53.6 °F - 48.2 °F 82% 29.65 in 6.2 mi WSW 26.5 mph - N/A   Scattered Clouds
5:00 PM 51.8 °F - 46.4 °F 82% 29.68 in 6.2 mi West 24.2 mph - N/A   Scattered Clouds
5:30 PM 51.8 °F - 46.4 °F 82% 29.68 in 6.2 mi West 21.9 mph - N/A   Scattered Clouds
6:00 PM 51.8 °F - 46.4 °F 82% 29.68 in 6.2 mi West 21.9 mph - N/A   Scattered Clouds
6:30 PM 50.0 °F - 46.4 °F 87% 29.71 in 6.2 mi West 24.2 mph - N/A   Scattered Clouds
7:00 PM 48.2 °F - 44.6 °F 87% 29.71 in 6.2 mi West 19.6 mph - N/A   Scattered Clouds
7:30 PM 48.2 °F - 46.4 °F 93% 29.74 in 6.2 mi West 18.4 mph - N/A   Scattered Clouds
8:00 PM 48.2 °F - 46.4 °F 93% 29.74 in 6.2 mi West 17.3 mph - N/A   Partly Cloudy
8:30 PM 46.4 °F 39.8 °F 44.6 °F 93% 29.74 in 6.2 mi WSW 16.1 mph - N/A   Partly Cloudy
9:00 PM 46.4 °F 40.4 °F 44.6 °F 93% 29.77 in 6.2 mi West 13.8 mph - N/A   Partly Cloudy
9:30 PM 44.6 °F 38.8 °F 44.6 °F 100% 29.77 in 6.2 mi WSW 11.5 mph - N/A   Partly Cloudy
10:00 PM 44.6 °F 39.7 °F 44.6 °F 100% 29.77 in 6.2 mi WSW 9.2 mph - N/A   Partly Cloudy
10:30 PM 44.6 °F 40.2 °F 44.6 °F 100% 29.80 in 6.2 mi SW 8.1 mph - N/A   Partly Cloudy